Regional Weather Roundup
Issued by NWS Lake Charles, LA

Home | Current Version | Previous Version | Text Only | Print | Product List | Glossary On
Versions: 1 2 3 4 5 6 7 8 9 10 11 12 13 14 15 16 17 18 19 20 21 22 23 24 25 26 27
000
ASUS44 KLCH 231010
RWRLCH
RWRLCH
REGIONAL WEATHER ROUNDUP
NATIONAL WEATHER SERVICE LAKE CHARLES LA
500 AM CDT WED APR 23 2014

Note: "fair" indicates few or no clouds below 12,000 feet with no
significant weather and/or obstructions to visibility.


ACROSS SOUTHEAST TEXAS

CITY           SKY/WX    TMP DP  RH WIND       PRES   REMARKS
BEAUMONT       FOG       67  65  93 CALM      29.93S VSB 1/4
BEAUMONT CITY  FOG       66  66 100 CALM      29.94S VSB 1/4
ORANGE         FOG       67  67 100 CALM      29.95S VSB 1/4
JASPER         CLEAR     56  55  97 CALM      29.97R FOG
$$

ACROSS CENTRAL LOUISIANA

CITY           SKY/WX    TMP DP  RH WIND       PRES   REMARKS
LEESVILLE      CLEAR     58  56  93 CALM      29.95R
FULLERTON        N/A     58  55  90 CALM      29.93R FOG
ALEXANDRIA INT PTCLDY    57  57 100 CALM      29.94R FOG
ESLER FIELD    FOG       55  53  93 CALM      29.95S VSB 3/4
DERIDDER         N/A     58  56  94 CALM      29.96S
OAKDALE        SUNNY     54  52  95 CALM      29.95S FOG
OPELOUSAS      FOG       54  54 100 CALM      29.95R VSB 1
$$

ACROSS SOUTHWEST AND SOUTH CENTRAL LOUISIANA

CITY           SKY/WX    TMP DP  RH WIND       PRES   REMARKS
SULPHUR        FOG       67  67 100 CALM      29.95S VSB 3/4
LAKE CHARLES   FOG       66  65  96 CALM      29.94S VSB 1/4
CHENNAULT INT  NOT AVBL
CAMERON PHI      N/A     68  68 100 CALM      29.95S FOG
DEQUINCY       PTSUNNY   57  56  97 CALM      29.94S
JENNINGS       FOG       61  61 100 CALM      29.94S VSB 1/4
LAFAYETTE      CLEAR     60  58  92 CALM      29.95R
NEW IBERIA     CLEAR     61  58  90 CALM      29.95R
ABBEVILLE      FOG      N/A N/A N/A CALM      29.95S VSB 1/4
PATTERSON        N/A     59  59 100 CALM      29.98R VSB 1/4
SALT POINT       N/A     67  65  93 CALM      29.93S
$$

SELECTED SITES ACROSS THE REGION

CITY           SKY/WX    TMP DP  RH WIND       PRES   REMARKS
HOUSTON BUSH   MOCLDY    65  64  97 CALM      29.93S
HOUSTON HOBBY  FOG       66  65  96 CALM      29.93R VSB 1
GALVESTON      FOG       68  68 100 CALM      29.94S VSB 1/4
COLLEGE STAT   CLEAR     63  60  90 CALM      29.92S
CONROE         MOCLDY    57  56  96 CALM      29.94S
HUNTSVILLE     CLEAR     64  59  83 S3        29.94S
LUFKIN         CLEAR     59  55  87 CALM      29.94R
SHREVEPORT     PTCLDY    59  57  93 CALM      29.94R
MONROE         FOG       56  55  97 CALM      29.97S VSB 1/4
NATCHEZ MS     CLEAR     54  52  94 CALM      29.95S
BATON ROUGE    CLEAR     59  56  89 CALM      29.94S
N.O. INTL ARPT CLEAR     63  61  93 CALM      29.94R
SLIDELL        CLEAR     58  56  93 CALM      29.93S
$$

MARINE REPORTS

STATION/POSITION TIME  TEMP    WIND        PRES    VSBY  WAVE
                       AIR SEA DIR/SP/G                  HT/PER
                 (UTC) (F)     (DEG/KT/KT) (MB)    (MI)  (FT/S)
BUOY 30 S HIGH I 1000   69 70  210/  6/  8 1013.3S         1/ 5
SEA RIM ST PARK  1000   68     190/  1/  1 1014.2R
PORT ARTHUR      1000      70  180/  3/  5 1013.7R
SABINE PASS N    1000   68 71  200/  2/  4 1013.6S
TEXAS POINT      1000   68 71  230/  2/  2 1014.0R
CALCASIEU PASS   1000   69 73  310/  3/  4 1014.8S
LK CHARLES BEACH 1000   66 74              1014.6F
MARSH ISLAND     0900   70     280/  5/  7   N/A
FRESH WATER LOCK 1000   67 74  310/  2/  3 1013.9S
AMERADA PASS     1000   65 63  280/  3/  4 1013.8F
$$



USA.gov is the U.S. government's official web portal to all federal, state and local government web resources and services.